EW8555 Weather Reports


Display with metric or nautical units.
time (UTC)temp
F
wind
direction
speed
MPH
gust
MPH
rain 1hr
in
rain 24hr
in
rain mn
in
humidity
%
barometer
mb
20260903224504 65 259 3.0 9.0 0.00 0.00 0.00 82 1012.9
20260903223001 65 252 3.0 10.0 0.00 0.00 0.00 83 1012.9
20260903221559 64 266 4.0 12.0 0.00 0.00 0.00 83 1012.9
20260903220107 64 255 2.0 5.0 0.00 0.00 0.00 83 1013.0
20260903214557 64 259 2.0 7.0 0.00 0.00 0.00 83 1012.8
20260903213057 64 240 2.0 8.0 0.00 0.00 0.00 83 1012.6
20260903211608 64 204 3.0 11.0 0.00 0.00 0.00 83 1012.7
20260903210057 64 171 5.0 11.0 0.00 0.00 0.00 82 1012.7
20260903204601 64 210 4.0 10.0 0.00 0.00 0.00 82 1012.8
20260903203054 64 244 4.0 9.0 0.00 0.00 0.00 82 1012.7
20260903201556 65 236 3.0 8.0 0.00 0.00 0.00 81 1012.8
20260903200101 65 223 2.0 9.0 0.00 0.00 0.00 80 1012.8
20260903194554 65 217 4.0 10.0 0.00 0.00 0.00 80 1012.9
20260903193056 66 259 4.0 12.0 0.00 0.00 0.00 79 1012.9
20260903191601 66 198 3.0 11.0 0.00 0.00 0.00 77 1012.8
20260903190052 67 170 4.0 10.0 0.00 0.00 0.00 76 1012.6
20260903184553 67 239 4.0 13.0 0.00 0.00 0.00 75 1012.9
20260903183113 68 229 4.0 12.0 0.00 0.00 0.00 73 1012.9
20260903181554 68 252 2.0 10.0 0.00 0.00 0.00 74 1012.8
20260903180049 68 216 5.0 14.0 0.00 0.00 0.00 74 1012.4
20260903174548 68 256 4.0 12.0 0.00 0.00 0.00 74 1012.5
20260903173047 68 245 4.0 10.0 0.00 0.00 0.00 73 1012.4
20260903171551 69 205 4.0 13.0 0.00 0.00 0.00 72 1012.5
20260903170047 69 207 5.0 12.0 0.00 0.00 0.00 71 1012.2
20260903164548 70 161 4.0 15.0 0.00 0.00 0.00 69 1012.2
20260903163045 70 236 9.0 17.0 0.00 0.00 0.00 68 1012.2
20260903161600 71 184 9.0 19.0 0.00 0.00 0.00 65 1012.2
20260903160044 72 249 6.0 21.0 0.00 0.00 0.00 64 1012.2
20260903154543 72 266 6.0 19.0 0.00 0.00 0.00 62 1012.3
20260903153042 72 250 6.0 20.0 0.00 0.00 0.00 60 1012.2
20260903151545 73 271 6.0 20.0 0.00 0.00 0.00 58 1012.2
20260903150041 73 229 3.0 18.0 0.00 0.00 0.00 56 1012.1
20260903144540 74 255 6.0 26.0 0.00 0.00 0.00 55 1012.2
20260903143042 74 269 6.0 16.0 0.00 0.00 0.00 55 1012.3
20260903141537 74 232 4.0 10.0 0.00 0.00 0.00 55 1012.4
20260903140036 74 291 3.0 14.0 0.00 0.00 0.00 55 1012.4
20260903134635 74 220 8.0 23.0 0.00 0.00 0.00 54 1012.4
20260903133044 74 229 6.0 20.0 0.00 0.00 0.00 55 1012.3
20260903131539 73 238 5.0 16.0 0.00 0.00 0.00 55 1012.4
20260903130033 73 230 11.0 23.0 0.00 0.00 0.00 55 1012.6
20260903124548 73 203 12.0 21.0 0.00 0.00 0.00 56 1012.7
20260903123030 74 243 7.0 20.0 0.00 0.00 0.00 55 1012.8
20260903121541 74 218 9.0 20.0 0.00 0.00 0.00 55 1012.8
20260903120026 73 273 11.0 19.0 0.00 0.00 0.00 56 1013.1
20260903114524 72 246 5.0 17.0 0.00 0.00 0.00 57 1013.3
20260903113021 71 245 8.0 17.0 0.00 0.00 0.00 59 1013.5
20260903111517 70 215 7.0 16.0 0.00 0.00 0.00 59 1013.5
20260903110016 70 251 8.0 23.0 0.00 0.00 0.00 59 1013.9
20260903104512 70 210 7.0 16.0 0.00 0.00 0.00 60 1013.9
20260903103010 69 196 11.0 19.0 0.00 0.00 0.00 60 1014.2
20260903101509 69 225 6.0 16.0 0.00 0.00 0.00 61 1014.3
20260903100018 69 275 8.0 16.0 0.00 0.00 0.00 60 1014.3
20260903094504 69 279 6.0 15.0 0.00 0.00 0.00 63 1014.7
20260903093001 68 245 3.0 7.0 0.00 0.00 0.00 62 1015.1
20260903091607 68 218 9.0 16.0 0.00 0.00 0.00 62 1015.1
20260903090057 67 204 5.0 12.0 0.00 0.00 0.00 66 1015.0
20260903084554 67 238 6.0 13.0 0.00 0.00 0.00 67 1015.2
20260903083057 66 250 8.0 13.0 0.00 0.00 0.00 69 1015.5
20260903081551 65 198 6.0 14.0 0.00 0.00 0.00 70 1015.7
20260903080046 65 225 5.0 11.0 0.00 0.00 0.00 73 1015.7
20260903074544 64 199 4.0 11.0 0.00 0.00 0.00 75 1015.6
20260903073046 63 202 5.0 10.0 0.00 0.00 0.00 77 1015.7
20260903071537 62 198 5.0 10.0 0.00 0.00 0.00 80 1015.7
20260903070034 61 255 6.0 10.0 0.00 0.00 0.00 80 1015.8
20260903064533 60 237 5.0 11.0 0.00 0.00 0.00 82 1015.9
20260903063032 59 194 4.0 9.0 0.00 0.00 0.00 83 1016.1
20260903061530 59 246 5.0 10.0 0.00 0.00 0.00 83 1016.0
20260903060027 58 214 6.0 11.0 0.00 0.00 0.00 83 1016.1
20260903054524 58 223 4.0 8.0 0.00 0.00 0.00 83 1016.2
20260903053023 58 200 5.0 9.0 0.00 0.00 0.00 84 1016.2
20260903051542 58 238 1.0 6.0 0.00 0.00 0.00 84 1016.3
20260903050041 57 215 2.0 6.0 0.00 0.00 0.00 85 1016.2
20260903044539 57 237 1.0 4.0 0.00 0.00 0.00 85 1016.2
20260903043046 57 200 2.0 5.0 0.00 0.00 0.00 85 1016.1
20260903041537 57 200 2.0 5.0 0.00 0.00 0.00 84 1016.0
20260903040036 57 222 3.0 7.0 0.00 0.00 0.00 84 1016.1
20260903034534 57 202 2.0 5.0 0.00 0.00 0.00 84 1016.1
20260903033032 57 238 0.0 4.0 0.00 0.00 0.00 84 1016.3
20260903031542 58 238 0.0 4.0 0.00 0.00 0.00 83 1016.4
20260903030032 58 249 0.0 4.0 0.00 0.00 0.00 86 1016.5
20260903024530 58 250 1.0 4.0 0.00 0.00 0.00 82 1016.4
20260903023029 58 251 1.0 4.0 0.00 0.00 0.00 82 1016.4
20260903021529 58 243 0.0 4.0 0.00 0.00 0.00 82 1016.4
20260903020037 58 232 1.0 4.0 0.00 0.00 0.00 81 1016.4
20260903014526 58 238 0.0 4.0 0.00 0.00 0.00 82 1016.5
20260903013026 58 237 1.0 4.0 0.00 0.00 0.00 82 1016.6
20260903011526 58 272 0.0 3.0 0.00 0.00 0.00 82 1016.7
20260903010025 57 236 1.0 5.0 0.00 0.00 0.00 83 1016.7
20260903004524 57 248 2.0 7.0 0.00 0.00 0.00 83 1016.7
20260903003024 57 250 2.0 7.0 0.00 0.00 0.00 82 1016.7
20260903001522 58 240 1.0 4.0 0.00 0.00 0.00 82 1016.7
20260903000021 58 261 1.0 4.0 0.00 0.00 0.00 81 1016.7
20260902234518 59 213 1.0 4.0 0.00 0.00 0.00 81 1016.7
20260902233017 59 257 1.0 5.0 0.00 0.00 0.00 81 1016.7
20260902231516 59 241 2.0 6.0 0.00 0.00 0.00 80 1016.7
20260902230018 59 248 1.0 4.0 0.00 0.00 0.00 81 1016.5